Regional Weather Roundup
Issued by NWS

Home | Current Version | Previous Version | Graphics & Text | Print | Product List | Glossary On
Versions: 1 2 3 4 5 6 7 8 9 10 11 12 13 14 15 16 17 18 19 20 21 22 23 24 25 26 27
000
ASUS45 KBOU 222206
RWRCO

WEATHER ROUNDUP FOR COLORADO
NATIONAL WEATHER SERVICE DENVER/BOULDER CO
400 PM MDT TUE APR 22 2014

NOTE: "FAIR" INDICATES FEW OR NO CLOUDS BELOW 12000 FEET WITH NO
SIGNIFICANT WEATHER AND/OR OBSTRUCTIONS TO VISIBILITY.

COZ001>005-013-030-031-222300-
...NORTHWEST COLORADO...

CITY           SKY/WX    TMP DP  RH WIND       PRES   REMARKS
CRAIG          CLOUDY    69  24  18 SW29G39   29.80F
HAYDEN         CLOUDY    66  28  24 SW15G24   29.85F
MEEKER         CLOUDY    68  22  17 S14G26    29.82F
MOUNT WERNER   NOT AVBL
STEAMBOAT SPGS CLOUDY    63  26  25 SE15G32   29.86S
WALDEN         CLOUDY    59  27  29 S20G28    29.92F
$$

COZ006>008-011-222300-
...WEST CENTRAL VALLEYS...

CITY           SKY/WX    TMP DP  RH WIND       PRES   REMARKS
GRAND JUNCTION CLOUDY    73  25  16 SW9       29.75F
MONTROSE       CLOUDY    73  26  17 S23G36    29.84F
EAGLE          CLOUDY    64  30  27 S9        29.89F
RIFLE          CLOUDY    72  22  15 W18G25    29.80F
DELTA          NOT AVBL
NUCLA          NOT AVBL
$$

COZ017>023-064>068-222300-
...SOUTHWEST COLORADO...

CITY           SKY/WX    TMP DP  RH WIND       PRES   REMARKS
DURANGO        PTSUNNY   69  25  19 W17       29.94F
CORTEZ         PTSUNNY   75  25  15 SW17G29   29.87F
PAGOSA SPRINGS PTSUNNY   65  20  18 SW16G24   30.01F
TELLURIDE      TSTM      46  37  71 S14G36    30.09R
WOLF CREEK PAS CLOUDY    37  28  70 SW35G45   30.19F
$$

COZ009-010-012-014-032>034-037-058>063-222300-
...CENTRAL COLORADO...

CITY           SKY/WX    TMP DP  RH WIND       PRES   REMARKS
ASPEN          CLOUDY    59  32  36 S18       29.97F
BUENA VISTA    CLOUDY    61  31  31 E8        29.99F
COPPER MTN     LGT SNOW  41  30  65 S18G25    30.20S
BERTHOUD PASS  FAIR      37  30  75 SW14      30.21F
COTTONWOOD PAS DRIZZLE   52  30  43 S14G26    30.07F
GUNNISON       PTSUNNY   66  25  20 W21G26    29.98F
KREMMLING      CLOUDY    59  28  31 W16G26    29.95F
LEADVILLE      CLOUDY    49  27  42 SE10      30.06F
MONARCH PASS   PTSUNNY   45  23  42 SW36G44   30.28F
SALIDA         CLOUDY    62  36  37 N16G22    30.02F
SUNLIGHT       CLOUDY    46  28  49 CALM      30.10F
WILKERSON PASS CLOUDY    45  30  57 SW8       30.17F
$$

COZ069>075-222300-
...SAN LUIS VALLEY/SANGRE DE CRISTO MOUNTAINS...

CITY           SKY/WX    TMP DP  RH WIND       PRES   REMARKS
ALAMOSA        CLOUDY    66  29  24 SW35G43   30.00F
LA VETA PASS   PTSUNNY   46  32  57 SW16G38   30.13F
SAGUACHE       CLOUDY    63  32  31 SW17G24   30.00F
$$

COZ035-036-038>040-222300-
...NORTHERN COLORADO FRONT RANGE...

CITY           SKY/WX    TMP DP  RH WIND       PRES   REMARKS
DENVER INTL AP CLOUDY    75  30  19 NE13G25   29.76F
DMNS CITY PARK   N/A     75  28  17 SW7G13    29.74F
AURORA         PTSUNNY   77  27  15 SW13G20   29.78F
FRONT RANGE AP NOT AVBL
ERIE MUNI ARPT CLOUDY    75  29  18 E5        29.75F
BOULDER MUN AP CLOUDY    75  32  20 S7        29.76F
CENTENNIAL     CLOUDY    75  31  19 SW20G26   29.79F
BROOMFIELD     PTSUNNY   73  32  21 CALM      29.79F
FORT COLLINS   PTSUNNY   75  36  23 SE21      29.74F
LONGMONT       NOT AVBL
$$

COZ041-046-047-076>085-087-088-222300-
...PIKES PEAK/PALMER DIVIDE AND SOUTHERN FOOTHILLS...

CITY           SKY/WX    TMP DP  RH WIND       PRES   REMARKS
COLO. SPRINGS  PTSUNNY   75  31  19 S21       29.85F
A. F. ACADEMY  PTSUNNY   70  30  22 W25G36    29.87S
ELLICOTT       NOT AVBL
FALCON         PTSUNNY   73  29  20 S18G31    29.90F
FORT CARSON    PTSUNNY   74  34  23 S13       29.83F
LIMON          MOSUNNY   78  29  16 SW17G24   29.80F
MONUMENT HILL  PTSUNNY   68  32  26 SW7       29.89F
TRINIDAD       PTSUNNY   72  40  31 S15       29.91F
$$

COZ042>045-048>051-090-091-222300-
...NORTHEAST COLORADO...

CITY           SKY/WX    TMP DP  RH WIND       PRES   REMARKS
GREELEY ARPT   MOSUNNY   79  30  17 S18G28    29.74F
AKRON          MOSUNNY   80  29  15 S14G26    29.76F
BURLINGTON     MOSUNNY   84  30  14 SW18G26   29.79F
WRAY           MOSUNNY   85  41  20 SE22G29   29.74F
STERLING       NOT AVBL
HOLYOKE        NOT AVBL
FORT MORGAN    NOT AVBL
$$

COZ086-089-092>099-222300-
...SOUTHEAST COLORADO...

CITY           SKY/WX    TMP DP  RH WIND       PRES   REMARKS
PUEBLO         CLOUDY    76  43  30 S7        29.79F
LA JUNTA       LGT RAIN  68  46  45 SW23G53   29.87R VSB 3/4
LAMAR          PTSUNNY   77  41  27 S29G41    29.76F HAZE
SPRINGFIELD      N/A     79  40  24 S28G38    29.85F
$$



USA.gov is the U.S. government's official web portal to all federal, state and local government web resources and services.